Temp
7 6 6 6 5 4 3 2 2 1 0 -0 -1 -1 -0 -0 -0 -0 -1 -2 -3 -4 -5 -5 -6 -6 -6 -7 -7 -8 -8 -9
8 7 6 5 4 3 2 2 1 0 -0 -1 -1 -1 -1 -1 -1 -1 -2 -3 -4 -5 -6 -6 -7 -7 -7 -7 -9 -9 -9 -9
8 8 7 5 4 4 3 1 0 -0 -1 -1 -1 -1 -1 -1 -2 -3 -3 -4 -5 -5 -6 -7 -7 -8 -8 -8 -9 -10 -10 -10
8 7 6 6 5 4 3 1 -0 -1 -1 -2 -2 -2 -2 -2 -3 -3 -4 -5 -6 -6 -7 -7 -8 -9 -9 -9 -10 -10 -10 -10
7 7 6 5 5 4 3 1 -0 -1 -2 -2 -2 -2 -2 -2 -3 -4 -5 -6 -7 -7 -8 -8 -8 -9 -9 -11 -11 -11 -11 -11
7 6 6 6 5 5 2 0 -1 -2 -2 -2 -2 -2 -3 -3 -4 -5 -6 -7 -7 -8 -9 -9 -9 -10 -10 -12 -12 -12 -12 -12
6 6 6 6 5 4 2 0 -1 -2 -2 -2 -2 -3 -3 -4 -5 -6 -7 -7 -8 -9 -9 -9 -10 -10 -12 -12 -12 -12 -12 -13
6 6 6 5 4 3 1 -0 -2 -2 -2 -2 -3 -3 -4 -5 -6 -7 -7 -8 -8 -9 -9 -10 -10 -11 -12 -12 -12 -13 -13 -13
6 6 5 4 3 2 1 -1 -2 -2 -3 -3 -4 -4 -5 -6 -7 -7 -8 -8 -9 -9 -10 -10 -11 -12 -12 -12 -13 -13 -14 -14
6 5 4 3 3 1 0 -1 -2 -3 -3 -4 -4 -5 -6 -7 -8 -8 -8 -9 -9 -9 -10 -11 -12 -12 -12 -13 -14 -14 -14 -14
5 4 4 3 1 0 -1 -2 -3 -3 -4 -5 -5 -5 -6 -7 -8 -8 -9 -9 -9 -10 -10 -12 -12 -12 -13 -13 -14 -14 -14 -14
4 4 3 2 1 -1 -2 -3 -3 -4 -4 -5 -6 -6 -7 -8 -8 -9 -9 -9 -10 -10 -11 -12 -12 -12 -13 -14 -14 -14 -14 -15
4 3 2 2 0 -1 -2 -3 -4 -4 -5 -5 -6 -7 -8 -8 -9 -9 -9 -9 -10 -10 -12 -12 -12 -13 -13 -14 -14 -14 -14 -15
2 2 2 1 -1 -1 -2 -4 -4 -5 -5 -6 -7 -7 -8 -9 -9 -9 -9 -10 -10 -11 -12 -12 -12 -13 -13 -14 -14 -14 -15 -15
2 1 0 -1 -1 -2 -4 -4 -5 -5 -6 -6 -7 -8 -9 -9 -9 -9 -9 -10 -11 -11 -12 -12 -12 -13 -14 -14 -14 -14 -15 -15
0 -0 -1 -2 -1 -3 -4 -5 -5 -5 -6 -7 -8 -8 -9 -9 -9 -10 -9 -10 -11 -12 -12 -12 -13 -13 -14 -14 -14 -14 -15 -15
-1 -1 -1 -1 -2 -4 -5 -5 -5 -6 -7 -8 -8 -9 -9 -9 -10 -9 -10 -11 -11 -12 -12 -12 -13 -14 -14 -14 -14 -14 -15 -15
-1 -2 -1 -2 -3 -4 -5 -6 -6 -7 -7 -8 -9 -9 -9 -10 -9 -10 -10 -11 -11 -12 -12 -13 -13 -14 -14 -14 -14 -14 -15 -15
-3 -2 -3 -3 -4 -5 -5 -6 -7 -7 -8 -9 -9 -9 -10 -10 -10 -10 -10 -10 -11 -12 -12 -13 -13 -13 -14 -14 -14 -14 -15 -15
Height
3150 3151 3148 3145 3145 3143 3143 3139 3135 3132 3129 3125 3121 3115 3109 3101 3094 3088 3083 3076 3070 3065 3059 3054 3048 3043 3038 3033 3027 3022 3017 3015
3147 3145 3144 3142 3141 3138 3136 3134 3131 3127 3126 3122 3117 3111 3104 3097 3089 3083 3077 3071 3066 3061 3055 3050 3045 3038 3032 3028 3023 3018 3013 3010
3143 3141 3140 3138 3136 3134 3130 3131 3128 3124 3121 3117 3112 3106 3099 3092 3085 3078 3071 3065 3061 3056 3051 3046 3040 3033 3027 3023 3018 3014 3010 3003
3138 3137 3136 3134 3133 3130 3127 3125 3124 3120 3117 3113 3108 3102 3095 3089 3083 3077 3070 3063 3057 3053 3046 3041 3036 3029 3023 3018 3013 3008 3004 3000
3134 3133 3133 3132 3130 3127 3123 3121 3119 3117 3113 3110 3105 3099 3092 3085 3078 3071 3065 3058 3053 3048 3042 3037 3031 3024 3018 3014 3008 3004 2999 2994
3132 3132 3131 3128 3125 3122 3120 3118 3115 3113 3110 3106 3101 3095 3088 3081 3074 3068 3062 3055 3050 3045 3039 3032 3025 3019 3014 3009 3004 2999 2995 2990
3132 3131 3128 3124 3121 3120 3117 3114 3113 3110 3107 3102 3097 3090 3083 3077 3071 3064 3058 3052 3047 3042 3035 3028 3021 3015 3011 3005 3000 2995 2990 2984
3131 3128 3124 3121 3120 3117 3114 3112 3110 3107 3103 3099 3092 3086 3079 3072 3066 3061 3056 3050 3044 3038 3031 3024 3016 3011 3006 3001 2996 2990 2985 2979
3127 3124 3122 3120 3117 3115 3111 3110 3107 3104 3099 3095 3088 3082 3075 3069 3064 3058 3052 3046 3040 3033 3026 3019 3013 3007 3003 2997 2992 2985 2980 2974
3124 3122 3120 3118 3116 3113 3110 3107 3104 3100 3096 3090 3083 3077 3072 3067 3061 3056 3050 3043 3037 3030 3022 3015 3010 3004 3000 2993 2987 2981 2975 2969
3123 3120 3117 3116 3114 3109 3106 3104 3101 3097 3092 3086 3080 3074 3068 3063 3058 3054 3048 3041 3034 3026 3019 3013 3007 3003 2996 2989 2983 2977 2971 2965
3119 3117 3115 3113 3110 3107 3104 3101 3098 3093 3088 3082 3076 3072 3066 3060 3055 3050 3044 3038 3031 3023 3017 3011 3006 3000 2992 2986 2980 2973 2967 2961
3117 3115 3112 3109 3107 3104 3101 3098 3095 3090 3085 3079 3074 3070 3064 3059 3054 3048 3043 3035 3027 3021 3015 3009 3004 2997 2990 2983 2977 2970 2964 2958
3115 3113 3110 3107 3105 3102 3099 3095 3090 3085 3081 3074 3071 3065 3061 3056 3051 3046 3038 3032 3025 3019 3013 3009 3002 2994 2988 2981 2974 2967 2961 2955
3113 3111 3108 3105 3101 3098 3095 3091 3087 3082 3077 3074 3068 3063 3059 3055 3049 3043 3036 3030 3023 3018 3012 3007 2999 2992 2985 2979 2972 2966 2960 2954
3111 3108 3104 3100 3097 3095 3093 3088 3084 3079 3076 3071 3067 3061 3058 3054 3047 3041 3034 3027 3021 3016 3011 3005 2997 2990 2983 2976 2971 2966 2959 2953
3104 3100 3099 3097 3094 3092 3089 3085 3081 3077 3073 3069 3065 3061 3058 3053 3046 3040 3033 3026 3021 3015 3010 3004 2996 2990 2983 2976 2971 2964 2959 2953
3100 3099 3097 3094 3090 3089 3086 3083 3079 3076 3072 3067 3064 3061 3057 3052 3045 3039 3033 3026 3020 3014 3009 3003 2996 2990 2983 2977 2970 2964 2959 2952
3100 3099 3095 3091 3089 3085 3082 3080 3077 3075 3070 3066 3063 3061 3056 3051 3046 3040 3033 3027 3020 3014 3009 3003 2997 2990 2983 2977 2970 2964 2959 2953
Wind_Speed
28 25 28 29 30 30 29 29 30 30 29 32 34 37 40 43 45 45 42 39 37 34 33 32 32 32 30 28 27 27 29 24
30 29 28 28 30 30 31 30 29 29 28 30 33 36 40 42 45 44 42 38 35 33 32 32 32 31 30 29 26 27 26 26
30 30 31 32 35 32 31 28 26 27 28 29 32 37 41 43 43 41 42 39 37 35 33 32 31 30 30 31 27 25 24 28
31 32 33 35 37 35 31 26 23 25 26 29 32 37 41 41 38 37 36 36 34 33 32 31 30 30 31 30 29 28 26 27
32 33 35 38 36 34 30 24 22 22 25 28 34 39 41 41 38 36 33 33 34 33 32 31 30 30 30 28 28 27 28 29
30 33 36 35 33 33 29 21 21 23 24 29 36 40 40 37 34 31 30 31 33 32 31 31 31 30 30 28 27 27 28 30
30 34 31 32 32 32 27 22 20 22 26 32 38 40 38 35 32 29 29 30 31 30 30 30 30 31 28 28 27 28 29 29
28 28 30 31 31 30 26 20 20 23 28 34 37 38 36 33 30 29 29 29 31 30 30 30 30 29 27 28 28 29 28 26
23 27 29 30 29 27 25 19 21 24 30 35 37 36 34 31 29 29 29 30 31 31 31 30 29 26 26 27 29 27 26 26
22 24 26 26 25 22 21 20 22 26 31 36 36 34 32 28 28 29 29 30 30 31 31 29 25 25 27 29 27 26 25 25
20 20 22 23 19 20 20 20 22 27 32 35 34 33 29 26 27 29 29 30 30 31 30 25 25 27 29 28 26 26 26 24
17 18 20 19 19 18 18 20 24 28 33 33 32 28 26 26 27 27 28 29 30 31 26 25 27 30 29 27 26 27 26 24
15 16 17 19 18 16 17 21 24 29 32 32 29 26 24 25 26 27 28 29 30 28 24 26 29 30 28 27 27 27 26 24
13 15 17 18 15 19 20 22 25 30 32 29 26 23 23 24 25 26 28 29 29 26 24 26 30 31 28 27 27 28 27 25
14 16 17 16 22 21 17 21 26 30 29 25 22 21 22 24 25 26 28 30 28 24 23 26 31 31 30 27 27 27 27 25
14 16 17 20 20 17 18 22 27 28 25 22 19 20 22 23 24 27 29 29 26 23 23 27 32 31 31 29 27 26 27 26
16 18 22 19 17 16 20 24 26 24 21 18 18 19 21 22 24 27 28 27 26 22 23 27 31 31 29 27 27 27 27 27
18 19 19 16 16 17 21 24 23 21 18 16 17 19 20 22 24 26 27 28 26 22 24 27 30 30 28 26 26 27 27 27
16 18 16 15 16 18 20 21 20 17 16 14 16 18 19 21 24 25 27 29 26 23 23 25 29 31 28 25 26 26 25 26
Wind_Direction
303 298 294 294 301 292 284 282 288 298 308 319 326 329 331 333 334 336 335 335 334 334 332 329 327 325 327 328 329 330 329 337
304 303 304 305 310 300 291 285 289 298 312 320 326 327 331 334 335 334 333 333 333 333 332 330 327 326 326 329 332 328 326 325
303 306 308 308 310 308 304 292 289 300 312 321 325 330 335 337 336 333 332 332 332 335 331 330 327 327 328 331 329 326 327 324
298 301 305 305 306 308 314 299 293 302 314 322 329 335 336 336 332 330 330 330 331 334 330 329 328 330 330 334 326 325 325 327
284 289 294 299 304 309 315 307 299 305 317 325 332 335 335 335 333 333 331 331 332 333 329 329 332 331 329 336 326 325 325 326
277 282 288 298 308 312 315 311 305 312 321 330 334 336 335 334 333 333 332 330 331 333 331 331 331 330 334 333 328 325 326 326
260 272 290 302 310 313 313 310 311 318 327 333 336 336 334 334 335 332 334 332 331 334 332 331 331 331 334 332 332 329 327 326
264 281 295 303 307 308 311 311 318 324 329 334 336 335 334 335 335 336 336 333 333 334 334 334 333 336 334 334 332 329 328 327
273 287 292 296 304 308 309 318 318 326 331 335 336 336 336 335 338 338 335 336 335 337 338 336 338 336 338 333 332 333 331 327
280 286 291 301 309 310 310 316 323 329 334 335 335 338 337 339 340 339 338 337 338 340 339 342 340 344 337 336 339 336 333 329
288 293 302 314 319 308 313 319 327 330 334 334 337 338 339 340 341 340 338 339 342 342 345 345 349 342 341 343 341 340 337 335
305 312 323 324 317 313 316 324 325 331 333 337 339 339 338 343 342 341 340 342 344 346 351 348 347 344 348 346 344 344 342 340
320 336 330 323 322 315 321 321 323 330 336 338 340 337 342 345 343 342 344 346 348 349 351 351 345 351 351 348 349 349 347 344
340 334 325 327 323 323 322 318 327 332 337 341 335 341 346 345 345 346 349 349 350 351 353 348 351 354 353 352 352 354 353 348
345 338 341 331 327 320 319 325 332 335 341 334 339 347 347 347 348 350 352 352 351 354 354 353 356 356 355 356 356 357 358 350
346 344 341 324 315 323 325 329 333 338 336 337 344 350 349 348 352 355 354 354 352 357 354 359 359 358 356 357 358 357 359 357
349 351 335 325 325 328 327 329 335 336 335 342 350 352 351 352 357 357 357 356 357 358 356 3 2 360 359 357 357 359 359 1
353 336 323 332 331 327 328 331 337 335 339 352 352 354 354 358 359 358 0 1 358 357 1 3 3 2 1 359 358 360 1 4
336 327 335 335 325 329 331 335 337 336 350 353 357 354 359 1 1 2 5 1 358 1 3 4 3 5 3 3 2 1 2 7